Kalispell, MT

3:14 AM MDT on April 26, 2018 (GMT -0600)
Glacier Park International

Weather History for KGPI - October, 2010

Change the Weather History Date:

Tuesday, October 26, 2010

  Actual Average Record
Temperature  
Mean Temperature 38 °F 39 °F  
Max Temperature 39 °F 50 °F 64 °F (1983)
Min Temperature 37 °F 28 °F 10 °F (2002)
Degree Days  
Heating Degree Days 27 26  
Month to date heating degree days 499 571  
Since 1 July heating degree days 1019 1071  
Cooling Degree Days 0 0  
Month to date cooling degree days 0 0  
Year to date cooling degree days 84 147  
Moisture  
Dew Point 34 °F    
Average Humidity 86    
Maximum Humidity 92    
Minimum Humidity 79    
Precipitation  
Precipitation 0.06 in 0.04 in 0.70 in (1946)
Month to date precipitation 0.33 0.81  
Year to date precipitation 15.66 13.80  
Snow  
Snow 0.00 in - - ()
Month to date snowfall 0.0  
Year to date snowfall 17.9  
Since 1 July snowfall 0.0  
Snow Depth 0.00 in    
Sea Level Pressure  
Sea Level Pressure 29.80 in    
Wind  
Wind Speed 9 mph (SSE)    
Max Wind Speed 14 mph    
Max Gust Speed 17 mph    
Visibility 10 miles    
Events Rain    
T = Trace of Precipitation, MM = Missing Value Source: NWS Daily Summary

Daily Weather History Graph

Daily Weather History Graph

Search for Another Location

Airport or City:

Astronomy

Oct. 26, 2010 Rise Set
Actual Time 8:13 AM MDT 6:27 PM MDT
Civil Twilight 7:41 AM MDT 6:59 PM MDT
Nautical Twilight 7:04 AM MDT 7:36 PM MDT
Astronomical Twilight 6:28 AM MDT 8:12 PM MDT
Moon 8:34 PM MDT 12:17 PM MDT
Length of Visible Light 11h 18m
Length of Day
10h 14m
Waning Gibbous, 87% of the Moon is Illuminated
Oct 26
Waning Gibbous
Oct 30
Last Quarter
Nov 5
New
Nov 13
First Quarter
Nov 21
Full

Hourly Weather History & Observations

Time (MDT) Temp. Windchill Dew Point Humidity Pressure Visibility Wind Dir Wind Speed Gust Speed Precip Events Conditions
12:05 AM 37.4 °F 30.3 °F 35.6 °F 93% 29.67 in 10.0 mi South 10.4 mph - N/A   Overcast
12:55 AM 37.0 °F 29.8 °F 35.1 °F 93% 29.71 in 10.0 mi SSE 10.4 mph - 0.00 in Rain Light Rain
1:19 AM 37.4 °F 31.4 °F 35.6 °F 93% 29.67 in 10.0 mi South 8.1 mph - 0.01 in Rain Light Rain
1:50 AM 37.4 °F 30.3 °F 33.8 °F 87% 29.67 in 10.0 mi South 10.4 mph - 0.01 in   Overcast
1:55 AM 37.0 °F 29.8 °F 35.1 °F 93% 29.70 in 10.0 mi South 10.4 mph - 0.01 in   Overcast
2:55 AM 37.0 °F 29.8 °F 35.1 °F 93% 29.71 in 10.0 mi South 10.4 mph - 0.00 in   Overcast
3:16 AM 37.4 °F 30.8 °F 35.6 °F 93% 29.68 in 10.0 mi SSE 9.2 mph - N/A   Overcast
3:43 AM 37.4 °F 30.3 °F 35.6 °F 93% 29.68 in 10.0 mi SSE 10.4 mph - N/A   Overcast
3:50 AM 37.4 °F 29.8 °F 35.6 °F 93% 29.68 in 10.0 mi SSE 11.5 mph - N/A   Overcast
3:55 AM 37.0 °F 29.8 °F 35.1 °F 93% 29.72 in 10.0 mi SSE 10.4 mph - N/A   Overcast
4:55 AM 37.0 °F 30.4 °F 34.0 °F 89% 29.73 in 10.0 mi SSE 9.2 mph - N/A   Overcast
5:55 AM 37.0 °F 31.0 °F 35.1 °F 93% 29.74 in 10.0 mi South 8.1 mph - 0.00 in Rain Light Rain
6:55 AM 37.0 °F 29.8 °F 34.0 °F 89% 29.75 in 10.0 mi South 10.4 mph - 0.00 in Rain Light Rain
7:55 AM 37.0 °F 28.9 °F 34.0 °F 89% 29.76 in 10.0 mi SSE 12.7 mph - 0.00 in   Overcast
8:55 AM 37.0 °F 30.4 °F 34.0 °F 89% 29.78 in 10.0 mi SSE 9.2 mph - N/A   Overcast
9:55 AM 37.0 °F 29.3 °F 34.0 °F 89% 29.80 in 10.0 mi SSE 11.5 mph - 0.00 in Rain Light Rain
10:55 AM 37.0 °F 29.3 °F 34.0 °F 89% 29.81 in 10.0 mi South 11.5 mph - 0.01 in Rain Light Rain
11:12 AM 37.4 °F 28.9 °F 33.8 °F 87% 29.76 in 10.0 mi SSE 13.8 mph - 0.00 in Rain Light Rain
11:55 AM 37.9 °F 30.5 °F 35.1 °F 89% 29.82 in 7.0 mi SSE 11.5 mph - 0.01 in Rain Light Rain
12:42 PM 37.4 °F 29.8 °F 35.6 °F 93% 29.78 in 7.0 mi SSE 11.5 mph - 0.01 in Rain Light Rain
12:55 PM 37.9 °F 30.5 °F 34.0 °F 86% 29.83 in 8.0 mi SSE 11.5 mph - 0.02 in Rain Light Rain
1:44 PM 37.4 °F 30.3 °F 35.6 °F 93% 29.78 in 10.0 mi SSE 10.4 mph - 0.00 in   Overcast
1:55 PM 37.9 °F 30.9 °F 35.1 °F 89% 29.83 in 10.0 mi SSE 10.4 mph - 0.00 in Rain Light Rain
2:55 PM 37.9 °F 31.5 °F 35.1 °F 89% 29.85 in 10.0 mi SE 9.2 mph - 0.01 in Rain Light Rain
3:55 PM 37.9 °F 30.9 °F 35.1 °F 89% 29.87 in 10.0 mi SE 10.4 mph - 0.00 in   Overcast
4:55 PM 39.0 °F 32.8 °F 35.1 °F 86% 29.89 in 10.0 mi SE 9.2 mph - 0.00 in   Overcast
5:55 PM 39.0 °F 33.4 °F 34.0 °F 82% 29.91 in 10.0 mi SSE 8.1 mph - N/A   Overcast
6:55 PM 39.0 °F 35.7 °F 34.0 °F 82% 29.92 in 10.0 mi SSE 4.6 mph - N/A   Overcast
7:55 PM 39.0 °F 34.8 °F 33.1 °F 79% 29.95 in 10.0 mi SSE 5.8 mph - 0.00 in   Overcast
8:55 PM 39.0 °F 33.4 °F 33.1 °F 79% 29.97 in 10.0 mi South 8.1 mph - N/A   Overcast
9:55 PM 37.9 °F 32.1 °F 33.1 °F 83% 30.00 in 10.0 mi SSE 8.1 mph - N/A   Overcast
10:55 PM 37.9 °F 32.7 °F 32.0 °F 79% 30.01 in 10.0 mi SSE 6.9 mph - N/A   Overcast
11:55 PM 37.9 °F 32.7 °F 32.0 °F 79% 30.02 in 10.0 mi SSE 6.9 mph - N/A   Overcast